When you browse on this site, cookies collect data to enhance your experience and personalize the content and advertising you see.
Visit our Privacy Policy to learn more. By continuing to use the site, you agree to this use of cookies and data.

Tiempo cada hora Townsville

Hoy, 11 Julio, Sábado

Tiempo Temperatura Precipitaciones Viento Presión Humedad
00:00 +18°C° 0 mm 3 mps 757 mmHg 92%
01:00 +18°C° 0 mm 3 mps 756 mmHg 93%
02:00 +19°C° 0 mm 3 mps 756 mmHg 91%
03:00 +19°C° 0 mm 3 mps 756 mmHg 90%
04:00 +19°C° 0 mm 3 mps 756 mmHg 91%
05:00 +19°C° 0 mm 3 mps 756 mmHg 91%
06:00 +19°C° 0 mm 3 mps 756 mmHg 91%
07:00 +18°C° 0 mm 3 mps 756 mmHg 92%
08:00 +20°C° 0 mm 3 mps 756 mmHg 84%
09:00 +22°C° 0 mm 4 mps 756 mmHg 76%
10:00 +25°C° 0 mm 4 mps 756 mmHg 69%
11:00 +25°C° 0 mm 4 mps 756 mmHg 68%
12:00 +26°C° 0 mm 5 mps 755 mmHg 67%
13:00 +26°C° 0 mm 5 mps 755 mmHg 66%
14:00 +25°C° 0 mm 5 mps 754 mmHg 68%
15:00 +25°C° 0 mm 5 mps 754 mmHg 70%
16:00 +25°C° 0 mm 4 mps 754 mmHg 72%
17:00 +23°C° 0 mm 4 mps 754 mmHg 78%
18:00 +21°C° 0 mm 4 mps 754 mmHg 84%
19:00 +20°C° 0 mm 3 mps 754 mmHg 89%
20:00 +20°C° 0 mm 3 mps 755 mmHg 90%
21:00 +20°C° 0 mm 3 mps 755 mmHg 91%
22:00 +19°C° 0 mm 3 mps 756 mmHg 93%
23:00 +19°C° 0 mm 3 mps 755 mmHg 93%

Mañana, 12 Julio, Domingo

Tiempo Temperatura Precipitaciones Viento Presión Humedad
00:00 +19°C° 0 mm 2 mps 755 mmHg 93%
01:00 +18°C° 0 mm 2 mps 754 mmHg 93%
02:00 +18°C° 0 mm 2 mps 754 mmHg 93%
03:00 +18°C° 0 mm 2 mps 754 mmHg 93%
04:00 +18°C° 0 mm 2 mps 754 mmHg 93%
05:00 +18°C° 0 mm 2 mps 754 mmHg 93%
06:00 +19°C° 0 mm 1 mps 754 mmHg 93%
07:00 +18°C° 0 mm 1 mps 754 mmHg 93%
08:00 +21°C° 0 mm 1 mps 755 mmHg 83%
09:00 +23°C° 0 mm 1 mps 755 mmHg 74%
10:00 +25°C° 0 mm 1 mps 755 mmHg 64%
11:00 +26°C° 0 mm 1 mps 755 mmHg 62%
12:00 +26°C° 0 mm 1 mps 754 mmHg 59%
13:00 +27°C° 0 mm 2 mps 753 mmHg 57%
14:00 +26°C° 0 mm 2 mps 753 mmHg 58%
15:00 +26°C° 0 mm 2 mps 753 mmHg 60%
16:00 +25°C° 0 mm 2 mps 752 mmHg 62%
17:00 +24°C° 0 mm 1 mps 753 mmHg 69%
18:00 +22°C° 0 mm 1 mps 753 mmHg 76%
19:00 +19°C° 0 mm 0 mps 754 mmHg 83%
20:00 +18°C° 0 mm 0 mps 754 mmHg 83%
21:00 +20°C° 0 mm 1 mps 754 mmHg 84%
22:00 +20°C° 0 mm 1 mps 755 mmHg 85%
23:00 +20°C° 0 mm 1 mps 755 mmHg 85%

Pasado mañana, 13 Julio, Lunes

Tiempo Temperatura Precipitaciones Viento Presión Humedad
00:00 +19°C° 0 mm 2 mps 755 mmHg 85%
01:00 +19°C° 0 mm 2 mps 755 mmHg 85%
02:00 +19°C° 0 mm 3 mps 755 mmHg 82%
03:00 +19°C° 0 mm 3 mps 755 mmHg 78%
04:00 +19°C° 0 mm 3 mps 755 mmHg 75%
05:00 +19°C° 0 mm 4 mps 755 mmHg 67%
06:00 +18°C° 0 mm 4 mps 756 mmHg 59%
07:00 +18°C° 0 mm 4 mps 756 mmHg 51%
08:00 +19°C° 0 mm 4 mps 757 mmHg 46%
09:00 +21°C° 0 mm 4 mps 757 mmHg 40%
10:00 +23°C° 0 mm 4 mps 757 mmHg 34%
11:00 +25°C° 0 mm 4 mps 756 mmHg 35%
12:00 +26°C° 0 mm 4 mps 756 mmHg 35%
13:00 +27°C° 0 mm 3 mps 755 mmHg 35%
14:00 +27°C° 0 mm 3 mps 755 mmHg 36%
15:00 +27°C° 0 mm 3 mps 755 mmHg 37%
16:00 +27°C° 0 mm 3 mps 755 mmHg 38%
17:00 +25°C° 0 mm 3 mps 755 mmHg 41%
18:00 +22°C° 0 mm 3 mps 756 mmHg 44%
19:00 +20°C° 0 mm 4 mps 756 mmHg 47%
20:00 +20°C° 0 mm 4 mps 756 mmHg 45%
21:00 +19°C° 0 mm 4 mps 757 mmHg 44%
22:00 +18°C° 0 mm 4 mps 757 mmHg 42%
23:00 +18°C° 0 mm 4 mps 757 mmHg 38%

14 Julio, Martes

Tiempo Temperatura Precipitaciones Viento Presión Humedad
00:00 +18°C° 0 mm 4 mps 757 mmHg 35%
01:00 +18°C° 0 mm 4 mps 757 mmHg 31%
02:00 +17°C° 0 mm 4 mps 757 mmHg 32%
03:00 +15°C° 0 mm 4 mps 757 mmHg 33%
04:00 +14°C° 0 mm 4 mps 757 mmHg 34%
05:00 +14°C° 0 mm 4 mps 757 mmHg 36%
06:00 +13°C° 0 mm 4 mps 757 mmHg 37%
07:00 +13°C° 0 mm 4 mps 758 mmHg 38%
08:00 +15°C° 0 mm 4 mps 758 mmHg 36%
09:00 +18°C° 0 mm 3 mps 758 mmHg 33%
10:00 +20°C° 0 mm 3 mps 759 mmHg 30%
11:00 +22°C° 0 mm 3 mps 758 mmHg 30%
12:00 +24°C° 0 mm 3 mps 757 mmHg 29%
13:00 +26°C° 0 mm 3 mps 757 mmHg 28%
14:00 +25°C° 0 mm 3 mps 756 mmHg 30%
15:00 +25°C° 0 mm 3 mps 756 mmHg 32%
16:00 +25°C° 0 mm 3 mps 755 mmHg 34%
17:00 +22°C° 0 mm 3 mps 755 mmHg 41%
18:00 +20°C° 0 mm 3 mps 756 mmHg 49%
19:00 +17°C° 0 mm 2 mps 756 mmHg 56%
20:00 +17°C° 0 mm 2 mps 757 mmHg 58%
21:00 +16°C° 0 mm 2 mps 757 mmHg 60%
22:00 +15°C° 0 mm 2 mps 757 mmHg 61%
23:00 +14°C° 0 mm 3 mps 757 mmHg 60%

15 Julio, Miércoles

Tiempo Temperatura Precipitaciones Viento Presión Humedad
00:00 +14°C° 0 mm 3 mps 757 mmHg 58%
01:00 +13°C° 0 mm 3 mps 757 mmHg 56%
02:00 +13°C° 0 mm 3 mps 757 mmHg 55%
03:00 +13°C° 0 mm 3 mps 757 mmHg 54%
04:00 +12°C° 0 mm 3 mps 757 mmHg 53%
05:00 +12°C° 0 mm 3 mps 757 mmHg 52%
06:00 +12°C° 0 mm 3 mps 757 mmHg 50%
07:00 +11°C° 0 mm 3 mps 757 mmHg 49%
08:00 +14°C° 0 mm 3 mps 757 mmHg 43%
09:00 +17°C° 0 mm 3 mps 757 mmHg 38%
10:00 +20°C° 0 mm 3 mps 758 mmHg 33%
11:00 +21°C° 0 mm 2 mps 757 mmHg 30%
12:00 +23°C° 0 mm 2 mps 756 mmHg 28%
13:00 +25°C° 0 mm 2 mps 756 mmHg 26%
14:00 +24°C° 0 mm 2 mps 755 mmHg 27%
15:00 +24°C° 0 mm 2 mps 755 mmHg 29%
16:00 +24°C° 0 mm 2 mps 754 mmHg 30%
17:00 +21°C° 0 mm 2 mps 755 mmHg 38%
18:00 +19°C° 0 mm 1 mps 755 mmHg 46%
19:00 +16°C° 0 mm 1 mps 755 mmHg 55%
20:00 +15°C° 0 mm 1 mps 756 mmHg 56%
21:00 +15°C° 0 mm 1 mps 756 mmHg 57%
22:00 +14°C° 0 mm 2 mps 757 mmHg 58%
23:00 +14°C° 0 mm 2 mps 756 mmHg 58%

16 Julio, Jueves

Tiempo Temperatura Precipitaciones Viento Presión Humedad
00:00 +14°C° 0 mm 2 mps 756 mmHg 57%
01:00 +13°C° 0 mm 2 mps 756 mmHg 56%
02:00 +13°C° 0 mm 2 mps 756 mmHg 56%
03:00 +13°C° 0 mm 2 mps 756 mmHg 56%
04:00 +13°C° 0 mm 2 mps 756 mmHg 56%
05:00 +13°C° 0 mm 2 mps 756 mmHg 56%
06:00 +12°C° 0 mm 2 mps 756 mmHg 57%
07:00 +12°C° 0 mm 2 mps 757 mmHg 58%
08:00 +14°C° 0 mm 3 mps 757 mmHg 52%
09:00 +17°C° 0 mm 3 mps 757 mmHg 45%
10:00 +20°C° 0 mm 3 mps 757 mmHg 39%
11:00 +21°C° 0 mm 2 mps 756 mmHg 36%
12:00 +23°C° 0 mm 2 mps 756 mmHg 32%
13:00 +25°C° 0 mm 2 mps 755 mmHg 29%
14:00 +25°C° 0 mm 2 mps 755 mmHg 30%
15:00 +25°C° 0 mm 2 mps 754 mmHg 31%
16:00 +24°C° 0 mm 2 mps 754 mmHg 32%
17:00 +21°C° 0 mm 2 mps 754 mmHg 38%
18:00 +20°C° 0 mm 1 mps 755 mmHg 44%
19:00 +16°C° 0 mm 1 mps 755 mmHg 49%
20:00 +16°C° 0 mm 1 mps 755 mmHg 47%
21:00 +15°C° 0 mm 2 mps 756 mmHg 45%
22:00 +15°C° 0 mm 2 mps 756 mmHg 43%
23:00 +14°C° 0 mm 2 mps 756 mmHg 44%
Mostrar más